Wind_Speed
12 12 12 11 10 10 9 9 9 9 9 8 8 8 8 8 8 8 8 8 8 8 8 9 9 9 9 9 9 9 8 9 9 10 10 11 11 11 12 12 13 13 13
13 13 12 11 11 11 11 10 10 10 10 9 9 9 9 9 8 8 8 8 9 9 9 9 9 10 10 10 10 10 9 9 10 10 11 12 12 13 13 13 14 15 15
14 14 14 13 13 12 12 12 11 11 11 12 11 11 10 10 10 9 9 9 10 10 10 10 10 10 10 11 11 11 10 11 11 10 11 12 12 14 14 15 15 15 16
15 15 15 15 14 13 13 13 13 13 12 12 12 12 11 10 11 11 10 10 10 11 11 11 11 12 12 12 12 12 12 12 13 12 12 12 14 14 14 15 15 15 15
17 16 16 16 15 14 14 14 14 14 13 13 12 12 11 11 12 12 12 11 11 12 12 12 12 13 13 13 13 13 13 14 14 14 14 15 16 15 15 15 15 15 16
18 18 18 17 16 16 15 15 15 14 14 14 14 13 13 13 13 14 13 13 13 13 13 13 14 14 14 14 15 15 15 15 15 15 16 16 17 17 16 16 17 17 17
20 19 19 19 18 18 17 16 16 16 16 15 15 15 15 15 15 15 15 15 15 14 14 15 15 16 16 16 16 16 16 17 17 16 17 18 18 18 18 18 18 19 18
21 20 20 20 20 19 19 18 18 17 17 16 16 16 16 16 17 17 17 16 16 16 16 16 16 16 16 17 17 18 18 18 18 18 19 19 20 20 20 21 21 21 21
22 22 22 22 21 20 20 19 19 19 18 18 18 17 17 18 18 18 19 19 19 19 19 18 18 18 18 18 19 19 19 20 20 20 21 21 21 21 22 23 22 22 23
23 23 23 23 22 21 21 21 21 21 20 20 20 19 20 20 20 20 21 21 21 21 21 20 20 20 20 20 21 21 21 22 22 22 22 22 22 23 24 24 24 24 24
23 23 23 23 24 23 23 23 23 23 23 22 22 22 22 22 22 22 22 21 22 22 22 23 23 23 23 23 24 24 24 24 24 24 24 25 25 25 25 25 26 26 27
24 24 24 25 26 26 25 25 25 24 24 24 24 24 24 24 24 24 24 23 23 23 24 24 25 25 25 25 26 26 26 26 26 26 27 27 27 27 27 28 28 29 29
26 26 26 26 25 26 26 26 26 26 26 26 26 25 25 25 25 25 25 24 24 24 25 25 26 26 27 27 27 27 28 28 28 28 28 28 29 29 30 30 30 30 30
27 27 28 28 27 26 27 27 27 26 26 26 26 26 26 26 26 25 25 25 25 25 26 26 27 27 28 28 28 29 30 30 30 30 30 30 31 31 31 32 32 32 32
27 28 28 28 28 28 28 28 28 27 27 27 27 27 27 27 27 27 27 27 27 28 28 27 27 28 29 30 30 31 31 31 32 32 32 33 33 34 34 34 34 34 34
27 27 28 28 28 28 29 28 28 28 28 28 28 28 28 28 29 29 28 28 28 29 29 29 29 29 30 30 31 31 32 33 33 34 34 35 35 35 35 35 35 36 35
26 27 27 28 28 28 29 28 28 28 29 29 30 30 30 31 31 31 31 30 30 30 30 30 31 31 31 32 32 33 33 34 35 35 35 36 36 36 36 36 36 36 36
26 26 27 27 27 28 28 28 29 29 29 30 30 31 32 32 32 32 32 32 32 31 31 31 32 32 32 33 34 34 35 36 36 36 37 37 36 36 36 36 36 37 37
27 27 28 28 27 28 28 29 30 30 31 31 31 31 32 32 32 32 33 33 33 32 32 32 33 33 33 33 34 35 35 36 37 37 37 37 37 37 36 36 36 37 37
28 28 28 28 28 28 29 30 30 31 31 31 31 31 32 32 32 32 33 33 33 33 34 34 34 35 34 34 34 34 35 36 37 37 37 37 37 37 37 37 37 37 36
29 29 29 29 29 29 30 30 31 31 31 31 31 31 31 31 31 32 33 33 33 34 34 35 35 35 35 35 36 36 36 36 36 36 36 35 35 35 35 36 37 36 36
29 29 29 29 29 30 31 31 31 31 31 31 31 32 32 32 32 32 33 33 34 34 35 35 35 36 36 36 36 36 36 36 36 36 37 36 36 36 36 36 36 35 35
30 30 30 30 30 31 31 31 31 31 32 32 32 33 33 33 34 34 34 34 35 35 35 36 36 36 36 36 36 36 35 36 36 36 36 36 36 36 36 37 36 36 35
31 31 31 32 32 32 32 32 32 32 32 33 33 33 33 34 35 35 35 35 35 36 35 35 36 36 36 36 37 37 36 36 36 36 36 36 36 36 36 36 36 36 36
32 32 33 33 33 33 33 33 33 33 33 33 34 34 34 34 34 35 35 36 36 36 35 35 35 35 36 36 36 36 36 35 35 36 36 36 36 36 36 36 37 37 37
33 33 34 34 34 34 34 34 34 34 33 33 33 34 34 34 34 35 35 35 35 35 35 35 35 35 35 36 36 36 36 36 36 36 36 35 35 35 35 36 36 37 37
Wind_Direction
272 274 275 275 275 276 276 273 275 276 272 272 272 276 278 278 281 280 275 273 272 272 273 274 274 276 279 282 282 286 294 295 295 296 295 293 289 284 281 280 280 280 281
271 272 273 273 272 271 271 270 274 274 272 271 272 276 277 278 277 281 278 272 269 270 271 272 271 272 276 279 282 288 290 294 296 294 294 295 294 291 288 282 279 280 281
270 272 270 271 271 269 267 267 269 271 273 273 272 272 272 274 275 278 279 274 273 272 271 272 270 273 275 279 285 288 290 291 294 291 291 291 290 291 290 285 282 281 282
269 270 270 270 270 267 266 267 267 269 270 271 271 270 269 272 276 276 276 277 276 273 272 272 272 273 275 278 281 284 288 289 293 294 290 294 297 295 294 293 289 286 287
267 267 267 268 268 266 266 267 267 266 266 267 271 271 269 270 274 274 274 274 274 273 272 273 275 276 276 278 281 282 285 288 291 293 292 293 298 299 298 296 293 290 289
266 266 264 263 264 265 266 266 266 265 266 266 268 270 269 270 272 272 272 272 272 272 272 273 275 277 278 279 280 281 284 287 288 290 290 293 295 296 296 297 295 292 289
265 264 262 261 261 262 263 264 264 264 265 264 266 268 269 272 271 272 272 272 270 269 272 274 275 276 276 279 281 282 284 286 287 289 289 290 292 293 293 293 294 292 291
263 262 260 259 259 262 262 262 262 263 262 263 265 268 269 270 271 272 272 273 270 268 270 272 273 276 278 279 280 281 282 283 284 286 288 289 289 289 289 289 289 290 290
262 261 260 258 259 260 262 263 262 262 262 263 265 269 271 273 274 276 277 275 273 272 273 273 274 275 277 279 282 283 283 283 283 285 288 288 288 288 289 288 287 288 289
261 260 259 259 259 260 262 262 262 262 262 264 266 268 270 272 274 275 278 276 273 273 273 273 274 275 275 277 279 281 281 281 282 283 284 285 286 287 288 287 285 286 287
260 260 258 259 259 260 261 260 261 262 263 263 265 268 270 271 273 275 276 273 271 272 273 274 274 275 275 276 278 279 281 281 281 283 283 285 286 286 286 286 286 286 287
260 259 259 259 259 260 261 260 261 261 263 264 265 267 269 271 273 274 274 273 272 273 274 274 274 275 276 276 277 279 280 281 283 284 284 285 286 285 284 285 285 285 286
263 261 261 262 262 260 260 262 262 262 263 264 265 267 270 271 273 273 272 271 271 273 274 275 275 275 275 277 278 279 280 281 282 283 284 284 285 285 285 285 285 285 285
264 263 262 263 261 260 260 262 262 263 265 266 267 269 270 272 272 272 271 270 271 272 274 275 276 277 277 277 278 280 280 281 282 282 282 283 284 285 286 285 285 286 285
264 264 264 264 262 262 262 263 263 265 267 268 269 269 271 271 271 271 271 271 271 273 274 275 277 278 278 278 278 279 280 281 282 281 282 283 283 284 286 286 286 287 286
264 265 265 265 264 264 263 263 264 265 266 268 269 270 271 271 271 271 271 272 271 272 273 275 276 277 277 277 278 279 280 281 281 281 282 282 283 285 284 284 285 285 286
265 266 266 266 265 264 263 264 265 266 267 268 269 270 270 271 272 272 271 270 270 271 272 274 275 276 277 279 279 280 281 282 283 283 284 284 284 283 283 284 285 286 286
264 265 266 267 266 265 264 264 266 267 268 269 269 271 271 271 272 272 271 271 271 272 273 275 277 277 278 278 279 281 282 283 283 284 284 284 283 283 282 283 285 286 286
264 265 266 266 266 265 265 267 268 269 269 269 270 271 272 272 272 272 272 272 272 273 274 276 277 277 278 279 280 281 282 282 283 284 284 283 283 282 282 282 284 285 285
265 265 265 265 266 267 267 269 270 272 271 270 271 272 272 272 272 272 272 272 272 273 274 275 277 277 279 280 281 282 283 283 283 283 283 283 283 282 283 283 283 284 285
265 265 265 265 266 267 268 269 270 271 272 271 271 272 273 272 272 273 273 273 273 273 274 275 277 278 278 280 281 282 283 284 284 282 281 281 283 284 284 284 284 284 283
264 265 265 266 267 268 269 270 270 270 271 272 272 272 272 273 273 273 275 275 274 275 275 277 278 278 279 280 281 283 284 284 283 282 281 281 282 283 284 284 285 285 285
266 266 266 266 267 268 269 269 270 271 272 273 273 273 273 273 274 274 276 276 276 276 276 278 279 280 280 280 281 282 282 282 281 281 280 280 282 284 284 285 284 285 285
265 266 267 267 268 269 269 270 270 271 272 273 273 273 273 274 275 276 276 276 276 277 277 279 279 279 279 280 281 281 281 280 280 281 281 281 282 282 283 284 284 284 286
265 267 268 268 268 269 270 271 272 272 272 273 273 273 274 274 275 276 276 276 276 276 277 279 279 278 278 279 280 280 280 280 281 281 281 281 281 282 283 284 285 285 286
267 268 268 268 269 270 270 271 272 272 272 273 273 274 274 275 275 276 277 277 277 278 278 279 278 278 279 280 280 280 280 280 280 280 280 281 282 283 284 284 285 286 286
Height
5831 5830 5830 5829 5828 5828 5828 5827 5827 5826 5826 5825 5825 5825 5824 5824 5823 5822 5822 5821 5821 5821 5820 5820 5819 5819 5818 5817 5817 5816 5815 5814 5813 5812 5811 5810 5809 5808 5807 5806 5805 5805 5804
5827 5827 5826 5826 5825 5825 5825 5824 5824 5823 5823 5823 5822 5822 5821 5821 5820 5820 5819 5819 5819 5818 5818 5817 5817 5816 5816 5815 5815 5814 5813 5812 5811 5810 5808 5807 5806 5805 5803 5802 5802 5801 5800
5823 5823 5823 5822 5822 5822 5821 5821 5821 5821 5820 5820 5819 5819 5818 5818 5818 5817 5817 5816 5816 5815 5815 5815 5814 5814 5813 5812 5812 5811 5810 5809 5808 5807 5805 5804 5803 5801 5800 5798 5797 5797 5796
5819 5819 5818 5818 5818 5818 5818 5818 5817 5817 5817 5817 5816 5816 5815 5815 5815 5814 5814 5813 5813 5813 5812 5811 5811 5811 5810 5809 5809 5808 5807 5806 5805 5804 5802 5801 5800 5798 5796 5795 5793 5793 5792
5814 5814 5814 5814 5814 5814 5814 5814 5814 5813 5813 5813 5813 5812 5812 5812 5811 5811 5810 5810 5809 5809 5809 5808 5808 5807 5807 5806 5805 5804 5803 5802 5801 5800 5799 5797 5796 5794 5793 5791 5789 5788 5788
5809 5809 5809 5809 5809 5809 5809 5809 5809 5809 5809 5809 5809 5809 5808 5808 5808 5807 5807 5806 5806 5805 5805 5804 5804 5803 5802 5802 5801 5800 5799 5798 5797 5796 5795 5794 5792 5791 5789 5787 5786 5784 5783
5803 5803 5803 5804 5804 5804 5804 5804 5804 5804 5805 5805 5805 5804 5804 5804 5803 5803 5802 5802 5801 5801 5801 5800 5799 5799 5798 5797 5796 5796 5795 5794 5793 5792 5790 5789 5788 5786 5784 5783 5781 5780 5779
5797 5797 5797 5798 5798 5799 5799 5799 5799 5799 5799 5800 5800 5800 5799 5799 5799 5798 5798 5797 5797 5796 5796 5795 5795 5794 5793 5792 5791 5791 5790 5789 5788 5787 5785 5784 5783 5781 5780 5778 5776 5775 5773
5790 5791 5791 5791 5792 5792 5793 5793 5793 5794 5794 5794 5794 5794 5794 5794 5794 5793 5792 5792 5791 5791 5791 5790 5789 5789 5788 5787 5786 5785 5784 5783 5782 5781 5779 5778 5777 5775 5773 5772 5770 5769 5767
5783 5784 5784 5785 5785 5786 5786 5787 5787 5788 5788 5788 5789 5789 5788 5788 5788 5787 5786 5786 5785 5785 5784 5784 5783 5783 5782 5781 5780 5779 5778 5777 5776 5775 5773 5772 5770 5769 5767 5765 5763 5762 5760
5776 5776 5777 5778 5778 5779 5779 5780 5780 5781 5781 5782 5782 5782 5782 5781 5781 5781 5780 5779 5779 5778 5778 5777 5777 5776 5775 5774 5774 5773 5771 5770 5769 5767 5766 5764 5763 5761 5760 5758 5756 5754 5752
5768 5768 5769 5770 5770 5771 5772 5772 5773 5773 5774 5774 5775 5775 5775 5774 5774 5773 5773 5772 5772 5771 5771 5770 5769 5768 5768 5767 5766 5765 5764 5763 5761 5760 5758 5757 5755 5753 5752 5750 5747 5745 5743
5759 5760 5760 5761 5761 5762 5763 5764 5765 5765 5765 5766 5767 5767 5767 5766 5766 5765 5765 5764 5764 5764 5763 5762 5761 5760 5760 5759 5758 5757 5756 5755 5753 5752 5750 5748 5747 5744 5742 5740 5738 5736 5734
5750 5751 5751 5752 5752 5753 5755 5756 5756 5757 5757 5758 5758 5758 5758 5758 5758 5757 5756 5756 5756 5755 5755 5754 5753 5752 5751 5750 5750 5749 5747 5746 5744 5743 5741 5739 5737 5735 5733 5731 5729 5726 5724
5742 5742 5742 5743 5743 5744 5745 5746 5747 5748 5748 5749 5749 5749 5749 5750 5749 5749 5748 5748 5747 5747 5746 5745 5744 5743 5743 5741 5740 5739 5738 5736 5735 5733 5731 5729 5727 5725 5723 5721 5718 5715 5713
5733 5733 5733 5734 5734 5735 5736 5737 5738 5739 5739 5739 5740 5740 5740 5740 5740 5740 5739 5739 5738 5737 5737 5736 5735 5734 5733 5732 5731 5729 5728 5726 5725 5723 5721 5719 5717 5714 5712 5709 5707 5704 5702
5724 5724 5724 5725 5725 5726 5727 5728 5729 5729 5730 5730 5730 5730 5730 5730 5730 5730 5729 5729 5728 5728 5727 5726 5725 5724 5723 5722 5720 5719 5718 5716 5714 5712 5710 5707 5705 5702 5700 5698 5696 5693 5691
5715 5715 5716 5716 5716 5717 5718 5719 5719 5720 5720 5720 5721 5720 5720 5720 5720 5720 5719 5719 5718 5717 5717 5716 5715 5714 5713 5711 5710 5708 5707 5705 5702 5700 5698 5696 5693 5691 5689 5686 5684 5682 5679
5707 5707 5707 5708 5708 5708 5709 5709 5710 5710 5710 5711 5711 5711 5710 5710 5710 5709 5709 5708 5708 5707 5707 5706 5704 5703 5702 5700 5699 5697 5695 5693 5691 5688 5686 5684 5681 5679 5677 5675 5673 5670 5668
5698 5698 5698 5699 5699 5699 5700 5700 5700 5700 5700 5700 5700 5700 5700 5699 5699 5699 5698 5698 5697 5696 5696 5695 5693 5692 5691 5689 5687 5685 5683 5681 5679 5676 5674 5672 5670 5668 5665 5663 5661 5659 5656
5688 5689 5689 5689 5689 5690 5690 5690 5690 5690 5690 5690 5690 5690 5689 5689 5688 5688 5687 5687 5686 5685 5684 5683 5682 5681 5679 5677 5675 5673 5671 5669 5667 5664 5662 5660 5658 5656 5654 5652 5650 5647 5645
5678 5679 5680 5680 5680 5680 5680 5680 5680 5679 5679 5679 5679 5679 5678 5678 5678 5677 5676 5675 5675 5674 5673 5671 5670 5669 5667 5666 5664 5662 5659 5657 5655 5653 5651 5649 5647 5645 5643 5640 5638 5636 5634
5668 5669 5669 5670 5670 5670 5669 5669 5669 5669 5669 5668 5668 5668 5667 5667 5666 5666 5665 5664 5663 5662 5660 5659 5658 5657 5655 5653 5651 5649 5647 5645 5643 5641 5639 5637 5635 5633 5631 5629 5627 5625 5623
5657 5658 5658 5659 5659 5659 5659 5659 5658 5658 5657 5657 5657 5656 5656 5656 5655 5654 5653 5652 5650 5649 5648 5647 5646 5645 5643 5641 5639 5637 5635 5633 5631 5629 5627 5625 5624 5622 5620 5618 5616 5613 5611
5646 5647 5647 5647 5647 5647 5647 5647 5647 5646 5646 5645 5645 5644 5644 5643 5643 5642 5640 5639 5638 5637 5636 5634 5633 5632 5631 5629 5627 5625 5623 5621 5619 5617 5615 5614 5612 5610 5608 5606 5604 5602 5600
5635 5635 5635 5635 5636 5636 5635 5635 5635 5634 5634 5633 5633 5632 5632 5631 5630 5629 5628 5627 5626 5625 5623 5622 5621 5620 5619 5617 5615 5613 5611 5609 5607 5605 5604 5602 5600 5599 5597 5594 5592 5590 5587